Location: Ku?niki
(51.4449°N, 17.8974°E)
Time: 01:36:54
(UTC+00:00)

Meteor 2-5 Rocket - Pass Details

Date: 18 September 2020
Orbit: 833 x 912 km, 81.2° (Epoch: 23 October)

Event Time Altitude Azimuth Distance (km) Brightness Sun altitude
Rises 18:37:09 0° 349° (N) 3,411 7.4 -16.2°
Reaches altitude 10° 18:39:37 10° 354° (N) 2,480 6.5 -16.6°
Maximum altitude 18:45:07 54° 72° (ENE) 1,038 3.9 -17.3°
Enters shadow 18:48:00 28° 137° (SE) 1,577 4.6 -17.8°
